This is the latest recevied weather packets stored in our database for station/object WA7CUG. If no packets are shown the sender has not sent any weather packets the latest 10 day(s).
| Time | Temp. | Humidity | Pressure | Rain* | Wind** | Luminosity | Snow |
|---|---|---|---|---|---|---|---|
| 1777606586 | 16.11° C | 58% | 1017.7 hPa | 0 mm | - | 0 W/m² | - |
| 1777606281 | 17.78° C | 53% | 1017.8 hPa | 0 mm | - | 0 W/m² | - |
| 1777605977 | 18.33° C | 42% | 1017.7 hPa | 0 mm | - | 0 W/m² | - |
| 1777605673 | 18.89° C | 39% | 1017.4 hPa | 0 mm | - | 1 W/m² | - |
| 1777605372 | 18.89° C | 39% | 1017.5 hPa | 0 mm | - | 2 W/m² | - |
| 1777605070 | 19.44° C | 40% | 1017.6 hPa | 0 mm | - | 3 W/m² | - |
| 1777604765 | 19.44° C | 39% | 1017.5 hPa | 0 mm | - | 5 W/m² | - |
| 1777604462 | 19.44° C | 38% | 1017.3 hPa | 0 mm | - | 9 W/m² | - |
| 1777604162 | 19.44° C | 39% | 1017.6 hPa | 0 mm | - | 13 W/m² | - |
| 1777603859 | 19.44° C | 41% | 1017.4 hPa | 0 mm | - | 16 W/m² | - |
| 1777603555 | 20° C | 40% | 1017.4 hPa | 0 mm | - | 19 W/m² | - |
| 1777603250 | 20° C | 39% | 1017.7 hPa | 0 mm | - | 22 W/m² | - |
| 1777602946 | 20.56° C | 38% | 1017.7 hPa | 0 mm | - | 25 W/m² | - |
| 1777602642 | 20.56° C | 37% | 1017.7 hPa | 0 mm | - | 29 W/m² | - |
| 1777602337 | 20.56° C | 42% | 1017.5 hPa | 0 mm | - | 34 W/m² | - |
| 1777602033 | 21.11° C | 36% | 1017.5 hPa | 0 mm | - | 42 W/m² | - |
| 1777601728 | 21.11° C | 35% | 1017.8 hPa | 0 mm | - | 55 W/m² | - |
| 1777601423 | 21.11° C | 43% | 1017.8 hPa | 0 mm | - | 70 W/m² | - |
| 1777601120 | 21.11° C | 35% | 1017.8 hPa | 0 mm | - | 72 W/m² | - |
| 1777600818 | 20.56° C | 40% | 1018 hPa | 0 mm | - | 63 W/m² | - |
| 1777600513 | 20.56° C | 42% | 1017.5 hPa | 0 mm | - | 53 W/m² | - |
| 1777600209 | 21.11° C | 45% | 1017.6 hPa | 0 mm | - | 56 W/m² | - |
| 1777599904 | 21.11° C | 41% | 1017.7 hPa | 0 mm | - | 58 W/m² | - |
| 1777599601 | 22.78° C | 40% | 1017.7 hPa | 0 mm | - | 55 W/m² | - |
| 1777599299 | 23.33° C | 36% | 1017.7 hPa | 0 mm | - | 55 W/m² | - |
* Rain latest hour (hover to see other rain measurements)
** Current wind speed in m/s (hover to see current wind gust speed)